TimeCST,TemperatureF,Dew PointF,Humidity,Sea Level PressureIn,VisibilityMPH,Wind Direction,Wind SpeedMPH,Gust SpeedMPH,PrecipitationIn,Events,Conditions,WindDirDegrees,DateUTC
12:53 AM,23.0,16.0,74,29.99,10.0,South,13.8,-,N/A,,Clear,170,2013-01-07 06:53:00
1:53 AM,27.0,18.0,69,29.97,10.0,South,16.1,23.0,N/A,,Clear,190,2013-01-07 07:53:00
2:53 AM,28.9,19.0,67,29.94,10.0,SSW,11.5,-,N/A,,Clear,200,2013-01-07 08:53:00
3:53 AM,28.9,19.0,67,29.93,10.0,SSW,12.7,21.9,N/A,,Clear,210,2013-01-07 09:53:00
4:53 AM,28.0,19.0,69,29.92,10.0,SSW,10.4,-,N/A,,Clear,200,2013-01-07 10:53:00
5:53 AM,28.0,19.0,69,29.92,10.0,SSW,11.5,-,N/A,,Clear,200,2013-01-07 11:53:00
6:53 AM,28.9,19.9,69,29.93,10.0,SSW,12.7,-,N/A,,Clear,210,2013-01-07 12:53:00
7:53 AM,28.0,19.9,72,29.94,10.0,SW,11.5,-,N/A,,Clear,220,2013-01-07 13:53:00
8:53 AM,26.1,19.0,75,29.93,10.0,SSW,11.5,-,N/A,,Clear,210,2013-01-07 14:53:00
9:53 AM,28.0,19.9,72,29.95,10.0,SSW,10.4,-,N/A,,Clear,210,2013-01-07 15:53:00
10:53 AM,30.9,21.9,69,29.96,10.0,SW,12.7,-,N/A,,Clear,230,2013-01-07 16:53:00
11:53 AM,32.0,23.0,69,29.94,10.0,SW,10.4,-,N/A,,Clear,230,2013-01-07 17:53:00
12:53 PM,33.1,23.0,66,29.92,10.0,SW,9.2,-,N/A,,Clear,230,2013-01-07 18:53:00
1:53 PM,34.0,23.0,64,29.92,10.0,SW,8.1,-,N/A,,Clear,220,2013-01-07 19:53:00
2:53 PM,35.1,23.0,61,29.94,10.0,WSW,8.1,-,N/A,,Clear,240,2013-01-07 20:53:00
3:53 PM,35.1,23.0,61,29.94,10.0,SW,8.1,-,N/A,,Clear,230,2013-01-07 21:53:00
4:53 PM,30.9,23.0,72,29.96,10.0,South,5.8,-,N/A,,Clear,190,2013-01-07 22:53:00
5:53 PM,28.9,21.9,75,29.97,10.0,SSW,5.8,-,N/A,,Clear,200,2013-01-07 23:53:00
6:53 PM,28.0,21.9,78,29.98,10.0,SSW,4.6,-,N/A,,Clear,200,2013-01-08 00:53:00
7:53 PM,28.9,21.9,75,29.97,10.0,WSW,5.8,-,N/A,,Clear,240,2013-01-08 01:53:00
8:53 PM,27.0,21.9,81,29.97,10.0,WSW,5.8,-,N/A,,Clear,240,2013-01-08 02:53:00
9:53 PM,26.1,21.0,81,29.98,10.0,SW,4.6,-,N/A,,Partly Cloudy,220,2013-01-08 03:53:00
10:53 PM,26.1,21.9,84,29.99,9.0,WSW,5.8,-,N/A,,Mostly Cloudy,240,2013-01-08 04:53:00
11:53 PM,25.0,21.0,85,30.00,8.0,WSW,5.8,-,N/A,,Clear,250,2013-01-08 05:53:00